Location: Newark
(41.4948°N, 13.7689°E)
Time: 01:26:37
(UTC+00:00)

N. Korean satellite - Visible Passes

Search period start: 10 December 2019 00:00
Search period end: 20 December 2019 00:00
Orbit: 456 x 506 km, 97.2° (Epoch: 09 December)

Date Brightness Start Highest point End Pass type
(mag) Time Alt. Az. Time Alt. Az. Time Alt. Az.
10 Dec 6.4 05:02:58 10° N 05:06:31 81° WNW 05:09:58 10° SSW visible
10 Dec 9.9 17:13:04 10° SW 17:15:10 14° W 17:17:16 10° WNW visible
11 Dec 7.7 04:37:40 10° NNE 04:41:03 43° E 04:44:23 10° S visible
11 Dec 8.9 16:46:20 10° SSW 16:49:35 28° W 16:52:50 10° NW visible
12 Dec 9.2 04:12:50 10° NE 04:15:30 20° E 04:18:09 10° SE visible
12 Dec 7.7 05:46:04 10° NNW 05:48:49 22° WNW 05:51:33 10° WSW visible
12 Dec 7.2 16:20:26 10° S 16:24:05 61° W 16:27:45 10° NNW visible
13 Dec 6.7 05:20:09 10° N 05:23:31 45° WNW 05:26:50 10° SSW visible
14 Dec 6.6 04:54:37 10° NNE 04:58:08 77° ESE 05:01:34 10° S visible
14 Dec 9.7 17:04:11 10° SW 17:06:45 18° W 17:09:19 10° NW visible
15 Dec 8.3 04:29:26 10° NNE 04:32:38 33° E 04:35:47 10° SSE visible
15 Dec 8.4 16:37:46 10° SSW 16:41:11 36° W 16:44:36 10° NNW visible
16 Dec 9.6 04:04:49 10° NE 04:07:03 16° E 04:09:15 10° SE visible
16 Dec 7.4 05:37:29 10° NNW 05:40:28 27° WNW 05:43:25 10° SW visible
16 Dec 6.8 16:12:01 10° S 16:15:43 79° WSW 16:19:23 10° NNW visible
17 Dec 6.4 05:11:42 10° N 05:15:08 59° WNW 05:18:31 10° SSW visible
17 Dec 10.2 17:22:54 10° WSW 17:23:57 11° W 17:24:59 10° WNW visible
18 Dec 7.1 04:46:16 10° NNE 04:49:42 58° E 04:53:05 10° S visible
18 Dec 9.4 16:55:25 10° SSW 16:58:19 22° W 17:01:13 10° NW visible
19 Dec 8.8 04:21:13 10° NE 04:24:10 26° E 04:27:06 10° SSE visible
19 Dec 8.0 05:55:03 10° NNW 05:57:22 17° WNW 05:59:40 10° WSW visible
19 Dec 7.9 16:29:15 10° S 16:32:46 45° W 16:36:18 10° NNW visible
